Location: D�derode
(51.8092°N, 10.1065°E)
Time: 06:26:54
(UTC+00:00)

SL-24 R/B - Pass Details

Date: 01 December 2020
Orbit: 505 x 1002 km, 97.4° (Epoch: 23 January)

Event Time Altitude Azimuth Distance (km) Brightness Sun altitude
Exits shadow 17:49:36 57° 193° (SSW) 619 4.1 -23.3°
Drops below altitude 10° 17:52:32 10° 195° (SSW) 1,724 6.6 -23.7°
Sets 17:54:34 0° 195° (SSW) 2,596 7.5 -24.0°
